SNUGLITE 2
1 52899U 22065F   25358.14891508  .00001291  00000-0  25618-3 0  9995
2 52899  98.1933 138.6179 0007016 205.7732 154.3122 14.63866543185382
UmKA 1 (RS40S)
1 57172U 23091G   25358.80323313  .00006445  00000-0  31664-3 0  9995
2 57172  97.5319  53.2155 0013760  13.9058 346.2552 15.18325370137522
CubeBel-2 (EU11S)
1 57175U 23091K   25358.80086632  .00013934  00000-0  57102-3 0  9994
2 57175  97.5316  55.8094 0011162  16.7947 343.3658 15.24335612137694
RS-38S
1 57189U 23091Z   25358.87433118  .00016882  00000-0  58785-3 0  9994
2 57189  97.5342  60.4385 0007672 340.1358  19.9582 15.29722658137983
SONATE-2
1 59112U 24043Q   25358.11402523  .00028848  00000-0  59775-3 0  9998
2 59112  97.5340 134.7952 0009381 122.2209 237.9950 15.45666302100732
MO-122
1 60209U 24125G   25358.82263135  .00035717  00000-0  70416-3 0  9998
2 60209  97.2508 209.2086 0015119 134.4092 225.8399 15.46994233 82472
GRBBeta
1 60237U 24128C   25358.84506148  .00005424  00000-0  38343-3 0  9993
2 60237  61.9906 107.2039 0055778  98.9087 261.8325 15.04875907 80018
Curium One
1 60242U 24128H   25358.65702873  .00009995  00000-0  61772-3 0  9990
2 60242  61.9797 102.4522 0055575  95.4991 265.2445 15.09109396 80082
ROBUSTA-3A
1 60243U 24128J   25358.59953841  .00009760  00000-0  61507-3 0  9993
2 60243  61.9875 104.2433 0055887  93.0148 267.7343 15.08409147 80052
CatSat
1 60246U 24125J   25358.55838953  .00040133  00000-0  93988-3 0  9992
2 60246  97.2296 205.8220 0034398 102.5359 257.9739 15.41367812 80341
HYPERVIEW-1G (RS66S)
1 61772U 24199AP  25358.89292072  .00047249  00000-0  87501-3 0  9990
2 61772  97.3194 228.4879 0008780 184.7976 175.3192 15.48826295107492
AO-123
1 61781U 24199AY  25358.82091895  .00011316  00000-0  36533-3 0  9998
2 61781  97.3235 224.1403 0013452 207.4841 152.5691 15.32198889107192
ZIMSAT 2
1 61783U 24199BA  25357.40050366  .00291018  00000-0  16554-2 0  9990
2 61783  97.3057 230.9317 0005612 143.5299 216.6351 15.78160573110683
HADES-R (SO-124)
1 62690U 25009CK  25358.17885146  .00223100  00000-0  24209-2 0  9999
2 62690  97.3850  81.2711 0001292 276.2987  83.8124 15.62780172 52565
HYDRA-T
1 62692U 25009CM  25358.20548181  .00254178  00000-0  24944-2 0  9995
2 62692  97.3832  81.5390 0001705 282.9757  77.1312 15.65249459 52589
JINJUSat 1B
1 63210U 25052A   25358.64737896  .00018665  00000-0  70452-3 0  9996
2 63210  97.4196 250.7315 0004312  17.2079 342.9305 15.27065072 43401
NUSHSAT 1
1 63211U 25052B   25358.69974802  .00020153  00000-0  73501-3 0  9995
2 63211  97.4175 250.9222 0004460  20.6671 339.4748 15.28182961 43420
TEVEL2-4
1 63213U 25052D   25358.64046990  .00020510  00000-0  76404-3 0  9992
2 63213  97.4095 250.3899 0004376  38.0475 322.1072 15.27479641 43408
TEVEL2-5
1 63214U 25052E   25358.64652421  .00019952  00000-0  74518-3 0  9997
2 63214  97.4093 250.3817 0004333  38.5606 321.5942 15.27400394 43409
TEVEL2-6
1 63215U 25052F   25358.65419934  .00019446  00000-0  72748-3 0  9990
2 63215  97.4098 250.3773 0004331  37.1051 323.0487 15.27352382 43407
TEVEL2-1
1 63217U 25052H   25358.69945979  .00018773  00000-0  70953-3 0  9997
2 63217  97.4072 250.2231 0004840  46.1487 314.0151 15.27017776 43400
TEVEL2-3
1 63218U 25052J   25358.63295493  .00018774  00000-0  70912-3 0  9997
2 63218  97.4075 250.1634 0004883  46.8088 313.3558 15.27038147 43397
TEVEL2-2
1 63219U 25052K   25358.24150990  .00019361  00000-0  73198-3 0  9999
2 63219  97.4071 249.7692 0004806  47.1204 313.0438 15.27001747 43335
TEVEL2-9
1 63237U 25052AD  25358.60949303  .00017476  00000-0  69121-3 0  9999
2 63237  97.4135 249.8238 0008882  49.2433 310.9574 15.25494866 43353
TEVEL2-7
1 63238U 25052AE  25358.69020882  .00017010  00000-0  67600-3 0  9995
2 63238  97.4139 249.8755 0009028  49.0860 311.1159 15.25339320 43363
TEVEL2-8
1 63239U 25052AF  25358.69604654  .00017257  00000-0  68628-3 0  9995
2 63239  97.4138 249.8654 0008999  49.2483 310.9534 15.25314244 43362
HYDRA-W
1 63490U 25052BL  25358.64088630  .00076380  00000-0  17169-2 0  9994
2 63490  97.4054 252.6046 0010702  41.3094 318.8962 15.43003645 43554
HADES-ICM (SO-125)
1 63492U 25052BN  25358.65155676  .00064786  00000-0  15675-2 0  9999
2 63492  97.4060 252.3109 0010907  43.8448 316.3662 15.40837000 43532
Dragonfly
1 65729U 98067XH  25357.85075333  .00184258  00000-0  11534-2 0  9999
2 65729  51.6249  78.7101 0007924 343.6586  16.4157 15.75691261 14911
RSP-03
1 65732U 98067XL  25358.57744338  .00149733  00000-0  11208-2 0  9998
2 65732  51.6260  76.0777 0005943 326.3891  33.6729 15.71657044 15020
GHS-01
1 65733U 98067XM  25357.46185538  .00275731  00000-0  14328-2 0  9991
2 65733  51.6283  79.8731 0008800 346.0913  13.9844 15.79591896 14877
BOTAN
1 65942U 98067XP  25357.96372569  .00111413  00000-0  10937-2 0  9998
2 65942  51.6282  82.4941 0003288 330.2787  29.8020 15.65195853 11620
BEE-1000
1 66650U 25274A   25358.75974333  .00001685  00000-0  17291-3 0  9990
2 66650  97.7405 285.7275 0011078 207.2837 152.7801 14.91700346  4192
SPIRONE
1 66657U 25274H   25358.74510949  .00003352  00000-0  33156-3 0  9996
2 66657  97.7400 285.7453 0010928 230.1139 129.9120 14.92519690  4196
K-HERO
1 66660U 25274L   25358.80258787  .00002966  00000-0  29021-3 0  9992
2 66660  97.7403 285.8259 0012823 235.9448 124.0555 14.93023583  4202
SNUGLITE-III DURI
1 66661U 25274M   25358.66586719  .00002581  00000-0  25241-3 0  9999
2 66661  97.7401 285.6966 0013444 238.0039 121.9874 14.93154864  4188
SilverSat
1 66909U 98067XV  25358.24882677  .00078073  00000-0  12166-2 0  9990
2 66909  51.6308  85.1451 0003859 300.0708  59.9900 15.53164124  3403
CEVROSAT1
1 98526U 25248E   25313.13142326  .00000000  00000-0  19360-3 0    02
2 98526  45.4084 218.4764 0001315 254.8982 242.1062 15.17981583    02
